EW8930 Weather Reports


time (UTC)temp
C
wind
direction
speed
KPH
gust
KPH
rain 1hr
cm
rain 24hr
cm
rain mn
cm
humidity
%
barometer
mb
20260903043025 25 229 1.6 8.0 0.00 0.03 0.00 79 1012.5
20260903041520 26 221 4.8 8.0 0.00 0.03 0.00 80 1012.4
20260903040017 26 221 3.2 11.3 0.00 0.03 0.00 80 1012.3
20260903034515 26 194 4.8 14.5 0.00 0.03 0.03 81 1012.1
20260903033015 26 206 6.4 14.5 0.00 0.03 0.03 81 1011.8
20260903031518 26 214 6.4 16.1 0.00 0.03 0.03 81 1011.6
20260903030013 26 202 4.8 16.1 0.00 0.03 0.03 81 1011.8
20260903024511 26 221 8.0 14.5 0.00 0.03 0.03 81 1012.1
20260903023011 26 243 6.4 12.9 0.00 0.03 0.03 81 1012.2
20260903021516 27 227 4.8 9.7 0.00 0.03 0.03 80 1012.3
20260903020011 27 217 6.4 11.3 0.00 0.03 0.03 80 1012.4
20260903014508 27 217 3.2 9.7 0.00 0.03 0.03 79 1012.4
20260903013007 27 211 4.8 9.7 0.00 0.03 0.03 78 1012.4
20260903011507 27 204 4.8 9.7 0.00 0.03 0.03 78 1012.3
20260903010020 28 215 4.8 9.7 0.00 0.03 0.03 77 1012.2
20260903004506 28 219 4.8 9.7 0.00 0.03 0.03 76 1012.1
20260903003005 28 216 3.2 8.0 0.00 0.03 0.03 75 1012.0
20260903001511 29 224 3.2 8.0 0.00 0.03 0.03 73 1012.1
20260903000004 30 228 3.2 11.3 0.00 0.03 0.03 71 1012.1
20260902234504 30 228 4.8 11.3 0.00 0.03 0.03 69 1012.0
20260902233003 31 210 3.2 8.0 0.00 0.03 0.03 66 1012.0
20260902231503 31 246 6.4 12.9 0.00 0.03 0.03 64 1012.0
20260902230002 32 226 6.4 17.7 0.00 0.03 0.03 63 1012.0
20260902224500 32 211 8.0 16.1 0.00 0.05 0.03 61 1012.1
20260902223100 32 215 6.4 14.5 0.00 0.05 0.03 62 1012.1
20260902221600 33 226 4.8 14.5 0.00 0.05 0.03 61 1012.2
20260902220104 33 268 11.3 19.3 0.00 0.05 0.03 58 1012.1
20260902214605 33 213 6.4 16.1 0.00 0.10 0.03 60 1012.1
20260902213056 33 238 9.7 19.3 0.00 0.10 0.03 58 1012.3
20260902211556 33 235 14.5 22.5 0.00 0.10 0.03 56 1012.2
20260902210056 33 263 9.7 19.3 0.00 0.10 0.03 56 1012.4
20260902204553 33 219 11.3 19.3 0.00 0.13 0.03 56 1012.5
20260902203050 33 224 9.7 20.9 0.00 0.13 0.03 58 1012.8
20260902201548 33 210 8.0 20.9 0.00 0.13 0.03 59 1012.9
20260902200047 33 205 8.0 17.7 0.00 0.13 0.03 58 1013.0
20260902194644 33 226 9.7 19.3 0.00 0.13 0.03 59 1013.1
20260902193044 33 217 8.0 16.1 0.00 0.13 0.03 59 1013.3
20260902191541 33 205 8.0 16.1 0.00 0.13 0.03 63 1013.4
20260902190039 33 239 8.0 17.7 0.00 0.13 0.03 61 1013.6
20260902184536 33 221 8.0 19.3 0.00 0.13 0.03 62 1013.7
20260902183035 33 267 8.0 19.3 0.00 0.13 0.03 61 1013.8
20260902181533 33 243 6.4 19.3 0.00 0.13 0.03 63 1014.0
20260902180031 32 202 6.4 16.1 0.00 0.13 0.03 66 1014.1
20260902174533 32 256 8.0 16.1 0.00 0.13 0.03 65 1014.4
20260902173034 32 208 8.0 22.5 0.00 0.13 0.03 66 1014.4
20260902171527 32 248 8.0 17.7 0.00 0.13 0.03 66 1014.6
20260902170023 31 275 4.8 14.5 0.00 0.13 0.03 70 1014.7
20260902164521 31 198 4.8 14.5 0.00 0.13 0.03 69 1014.8
20260902163020 31 260 6.4 16.1 0.00 0.13 0.03 69 1015.1
20260902161535 31 277 6.4 12.9 0.00 0.13 0.03 71 1015.2
20260902160017 31 242 4.8 17.7 0.00 0.13 0.03 70 1015.2
20260902154515 30 236 4.8 11.3 0.00 0.13 0.03 71 1015.2
20260902153014 30 287 4.8 12.9 0.00 0.13 0.03 71 1015.2
20260902151512 30 219 3.2 12.9 0.00 0.13 0.03 72 1015.0
20260902150008 30 230 8.0 16.1 0.00 0.13 0.03 73 1015.0
20260902144510 29 232 3.2 9.7 0.00 0.13 0.03 75 1014.9
20260902143003 29 264 6.4 16.1 0.00 0.13 0.03 75 1014.9
20260902141501 28 225 4.8 9.7 0.00 0.13 0.03 76 1014.8
20260902140058 28 239 1.6 8.0 0.00 0.13 0.03 76 1014.9
20260902134556 27 200 3.2 8.0 0.00 0.13 0.03 76 1014.9
20260902133050 26 236 3.2 8.0 0.00 0.13 0.03 74 1015.0
20260902131546 26 261 1.6 8.0 0.00 0.13 0.03 67 1014.9
20260902130043 25 223 4.8 9.7 0.00 0.13 0.03 60 1014.8
20260902124537 24 223 6.4 9.7 0.00 0.13 0.03 52 1015.0
20260902123035 23 234 3.2 12.9 0.00 0.13 0.03 44 1015.0
20260902121534 23 193 3.2 9.7 0.00 0.13 0.03 40 1015.0
20260902120030 23 227 1.6 6.4 0.00 0.13 0.03 37 1015.1
20260902114557 23 213 3.2 9.7 0.00 0.13 0.03 32 1014.8
20260902113027 22 234 1.6 6.4 0.00 0.13 0.03 29 1014.7
20260902111525 22 242 0.0 3.2 0.00 0.13 0.03 29 1014.5
20260902110036 22 222 0.0 3.2 0.00 0.13 0.03 29 1014.6
20260902104533 22 225 0.0 3.2 0.00 0.13 0.03 28 1014.5
20260902103024 22 214 0.0 3.2 0.00 0.13 0.03 27 1014.6
20260902101523 22 214 0.0 1.6 0.00 0.13 0.03 28 1014.6
20260902100021 22 214 0.0 1.6 0.00 0.13 0.03 29 1014.6
20260902094521 22 214 0.0 3.2 0.00 0.13 0.03 27 1014.6
20260902093021 23 214 0.0 3.2 0.00 0.13 0.03 26 1014.4
20260902091521 22 205 0.0 3.2 0.00 0.13 0.03 25 1014.5
20260902090019 22 210 0.0 1.6 0.00 0.13 0.03 25 1014.6
20260902084525 22 210 0.0 1.6 0.00 0.13 0.03 25 1014.6
20260902083026 22 209 0.0 3.2 0.00 0.13 0.03 26 1014.5
20260902081517 22 146 0.0 1.6 0.00 0.13 0.03 26 1014.4
20260902080017 22 146 0.0 0.0 0.00 0.13 0.03 26 1014.2
20260902074518 22 146 0.0 0.0 0.00 0.13 0.03 26 1014.1
20260902073014 22 146 0.0 1.6 0.03 0.13 0.03 26 1013.9
20260902071513 22 146 0.0 1.6 0.03 0.13 0.03 26 1013.9
20260902070012 22 146 0.0 1.6 0.03 0.13 0.03 26 1013.9
20260902064510 22 146 0.0 0.0 0.03 0.13 0.03 26 1014.0
20260902063016 22 146 0.0 1.6 0.00 0.10 0.00 26 1014.2
20260902061527 22 146 0.0 1.6 0.00 0.10 0.00 27 1014.2
20260902060016 22 146 0.0 0.0 0.00 0.10 0.00 27 1014.2
20260902054512 22 146 0.0 1.6 0.00 0.10 0.00 27 1014.3
20260902053010 22 146 0.0 0.0 0.00 0.10 0.00 27 1014.5
20260902051506 22 146 0.0 0.0 0.00 0.10 0.00 28 1014.5
20260902050008 22 146 0.0 0.0 0.00 0.10 0.00 28 1014.4
20260902044504 22 146 0.0 1.6 0.00 0.10 0.00 28 1014.3